Location: York
(31.8935°S, 116.7682°E)
Time: 22:57:54
(UTC+08:00)

Hubble Space Telescope - Pass Details

Date: 24 May 2021
Orbit: 535 x 539 km, 28.5° (Epoch: 19 June)

Event Time Altitude Azimuth Distance (km) Brightness Sun altitude
Rises 19:42:21 0° 274° (W) 2,691 5.5 -30.0°
Reaches altitude 10° 19:45:00 10° 289° (WNW) 1,797 4.3 -30.5°
Enters shadow 19:47:03 19° 316° (NW) 1,311 3.2 -31.0°
